Campo, CA

10:09 AM PST on December 16, 2017 (GMT -0800)
Campo

Weather History for KCZZ - December, 2012

Change the Weather History Date:

Saturday, December 15, 2012

  Actual Average Record
Temperature  
Mean Temperature 46 °F 47 °F  
Max Temperature 50 °F 62 °F 80 °F (1969)
Min Temperature 42 °F 32 °F 19 °F (1987)
Degree Days  
Heating Degree Days 19 18  
Month to date heating degree days 201 256  
Since 1 July heating degree days 630 826  
Cooling Degree Days 0 0  
Month to date cooling degree days 0 0  
Year to date cooling degree days 942 841  
Moisture  
Dew Point 38 °F    
Average Humidity 75    
Maximum Humidity 93    
Minimum Humidity 56    
Precipitation  
Precipitation 0.24 in 0.08 in 1.77 in (2008)
Month to date precipitation 1.26 1.00  
Year to date precipitation 9.50 14.46  
Since 1 July precipitation 3.45  
Snow  
Snow 0.00 in - - ()
Month to date snowfall 0.0  
Year to date snowfall 0.0  
Snow Depth 0.00 in    
Sea Level Pressure  
Sea Level Pressure 29.93 in    
Wind  
Wind Speed 7 mph (West)    
Max Wind Speed 18 mph    
Max Gust Speed 22 mph    
T = Trace of Precipitation, MM = Missing Value Source: NWS Daily Summary

Daily Weather History Graph

Daily Weather History Graph

Search for Another Location

Airport or City:

Trip Planner

Search our weather history database for the weather conditions in past years. The results will help you decide how hot, cold, wet, or windy it might be!

Date:

Astronomy

Dec. 15, 2012 Rise Set
Actual Time 6:40 AM PST 4:41 PM PST
Civil Twilight 6:13 AM PST 5:09 PM PST
Nautical Twilight 5:42 AM PST 5:39 PM PST
Astronomical Twilight 5:12 AM PST 6:09 PM PST
Moon 8:42 AM PST (12/15) 7:44 PM PST (12/15)
Length of Visible Light 10h 55m
Length of Day
10h 01m
Waxing Crescent, 9% of the Moon is Illuminated
Dec 15
Waxing Crescent
Dec 19
First Quarter
Dec 28
Full
Jan 4
Last Quarter
Jan 11
New

Hourly Weather History & Observations

Time (PST) Temp. Windchill Dew Point Humidity Pressure Visibility Wind Dir Wind Speed Gust Speed Precip Events Conditions
12:52 AM 42.1 °F 40.2 °F 39.0 °F 89% 29.88 in - SW 3.5 mph - 0.04 in   Unknown
1:52 AM 43.0 °F 40.3 °F 39.9 °F 89% 29.87 in - SW 4.6 mph - 0.05 in   Unknown
2:52 AM 44.1 °F 41.5 °F 41.0 °F 89% 29.86 in - SW 4.6 mph - N/A   Unknown
3:52 AM 44.1 °F - 41.0 °F 89% 29.84 in - Calm Calm - 0.02 in   Unknown
4:52 AM 45.0 °F 43.5 °F 42.1 °F 90% 29.86 in - West 3.5 mph - 0.01 in   Unknown
5:52 AM 45.0 °F - 43.0 °F 93% 29.87 in - Calm Calm - 0.06 in   Unknown
6:52 AM 45.0 °F - 43.0 °F 93% 29.90 in - Calm Calm - 0.01 in   Unknown
7:52 AM 46.0 °F 44.8 °F 43.0 °F 89% 29.91 in - SW 3.5 mph - N/A   Unknown
8:52 AM 46.9 °F - 44.1 °F 90% 29.91 in - SW 6.9 mph - 0.02 in   Unknown
9:52 AM 46.9 °F - 43.0 °F 86% 29.93 in - WNW 16.1 mph 20.7 mph 0.04 in   Unknown
10:52 AM 46.9 °F - 42.1 °F 83% 29.93 in - WNW 12.7 mph 20.7 mph N/A   Unknown
11:52 AM 46.9 °F - 39.9 °F 77% 29.91 in - WNW 11.5 mph 18.4 mph N/A   Unknown
12:52 PM 46.0 °F 40.6 °F 39.9 °F 79% 29.92 in - WNW 11.5 mph - N/A   Unknown
1:52 PM 48.0 °F - 39.0 °F 71% 29.91 in - WNW 11.5 mph - N/A   Unknown
2:52 PM 48.9 °F - 33.1 °F 54% 29.92 in - West 12.7 mph - N/A   Unknown
3:52 PM 48.0 °F - 32.0 °F 54% 29.92 in - WSW 8.1 mph - N/A   Unknown
4:52 PM 45.0 °F 40.1 °F 32.0 °F 60% 29.94 in - WSW 9.2 mph - N/A   Unknown
5:52 PM 43.0 °F 40.3 °F 30.9 °F 62% 29.96 in - West 4.6 mph - N/A   Unknown
6:52 PM 36.0 °F - 30.9 °F 82% 29.97 in - Calm Calm - N/A   Unknown
7:52 PM 35.1 °F 31.0 °F 30.9 °F 85% 29.98 in - ENE 4.6 mph - N/A   Unknown
8:52 PM 37.0 °F - 32.0 °F 82% 30.01 in - Calm Calm - N/A   Unknown
9:52 PM 36.0 °F 33.3 °F 32.0 °F 86% 30.02 in - ENE 3.5 mph - N/A   Unknown
10:52 PM 37.0 °F - 33.1 °F 86% 30.04 in - Calm Calm - N/A   Unknown
11:52 PM 37.0 °F - 34.0 °F 89% 30.04 in - Calm Calm - N/A   Unknown